Regional Weather Roundup
Issued by NWS

Home | Current Version | Previous Version | Graphics & Text | Print | Product List | Glossary On
Versions: 1 2 3 4 5 6 7 8 9 10 11 12 13 14 15 16 17 18 19 20 21 22 23 24 25 26 27 28 29 30 31 32 33 34 35 36 37 38 39 40 41 42 43 44 45 46 47 48 49 50
000
ASUS43 KBIS 291310
RWRND

NORTH DAKOTA REGIONAL WEATHER ROUNDUP
NATIONAL WEATHER SERVICE BISMARCK ND
800 AM CDT WED JUL 29 2015

NOTE: "FAIR" INDICATES FEW OR NO CLOUDS BELOW 12,000 FEET WITH NO
SIGNIFICANT WEATHER AND/OR OBSTRUCTIONS TO VISIBILITY.


NDZ001>003-009>011-017-291400-
NORTHWEST NORTH DAKOTA

CITY           SKY/WX    TMP DP  RH WIND       PRES   REMARKS
WILLISTON      PTSUNNY   60  49  66 W17G24    30.00R
MINOT          PTSUNNY   62  51  67 W18       29.88R
MINOT AFB      PTSUNNY   62  56  81 W17G23    29.86R
$$

NDZ018>021-031>035-040>046-291400-
SOUTHWEST NORTH DAKOTA

CITY           SKY/WX    TMP DP  RH WIND       PRES   REMARKS
BISMARCK       SUNNY     63  48  58 W14       30.00R
DICKINSON      MOSUNNY   60  44  55 W15       30.07R
GARRISON         N/A     62  52  69 W18G28    29.95R
HETTINGER ARPT SUNNY     56  41  57 W12       30.13R
$$

NDZ004>008-012>016-024-026-027-054-291400-
NORTHEAST NORTH DAKOTA

CITY           SKY/WX    TMP DP  RH WIND       PRES   REMARKS
GRAND FORKS    CLOUDY    65  55  70 W20G32    29.68R
GRND FRKS AFB  PTSUNNY   66  55  67 NW22G43   29.69R
DEVILS LAKE    CLOUDY    64  52  63 W26G36    29.75R
$$

NDZ022-023-025-028>030-036>039-047>053-291400-
SOUTHEAST NORTH DAKOTA

CITY           SKY/WX    TMP DP  RH WIND       PRES   REMARKS
FARGO          PTSUNNY   65  52  62 W21G31    29.78R
JAMESTOWN      SUNNY     65  51  60 W22G31    29.88R
$$




USA.gov is the U.S. government's official web portal to all federal, state and local government web resources and services.